Back to catalog

THORAD AGENA D DEB

AliveSSO
NORAD 19290·DEBRIS·🇺🇸 United States

Launched Apr 8, 1970 from Vandenberg Space Force Base

Loading…

Next Passes (next 24 hours)

TLE

FreshSource: Space-Track

Epoch: Sep 14, 2026, 03:36 UTC

1 19290U 70025PV  26257.15064705  .00000225  00000-0  36774-3 0  9994
2 19290  99.9021 208.7865 0027902   9.1544   5.4590 13.59207685 50590

Track THORAD AGENA D DEB in real time with AllMySat

Download on the App Store